TimeEDT,TemperatureF,Dew PointF,Humidity,Sea Level PressureIn,VisibilityMPH,Wind Direction,Wind SpeedMPH,Gust SpeedMPH,PrecipitationIn,Events,Conditions,WindDirDegrees,DateUTC
12:15 AM,46.2,36.9,70,30.35,10.0,SSE,5.8,-,N/A,,Clear,160,2013-04-27 04:15:00
12:34 AM,45.7,36.9,71,30.34,10.0,SSE,6.9,-,N/A,,Clear,160,2013-04-27 04:34:00
12:55 AM,45.0,36.7,73,30.34,10.0,SSE,6.9,-,N/A,,Clear,150,2013-04-27 04:55:00
1:15 AM,44.8,36.7,73,30.34,10.0,SSE,5.8,-,N/A,,Clear,150,2013-04-27 05:15:00
1:35 AM,43.7,36.0,74,30.33,10.0,SE,5.8,-,N/A,,Clear,140,2013-04-27 05:35:00
1:55 AM,42.6,36.0,77,30.33,10.0,SE,5.8,-,N/A,,Clear,140,2013-04-27 05:55:00
2:15 AM,42.6,36.3,78,30.33,10.0,SSE,6.9,-,N/A,,Clear,150,2013-04-27 06:15:00
2:35 AM,42.1,36.9,82,30.33,10.0,SE,6.9,-,N/A,,Clear,140,2013-04-27 06:35:00
3:15 AM,42.6,37.4,82,30.32,10.0,SSE,6.9,-,N/A,,Clear,160,2013-04-27 07:15:00
3:35 AM,43.0,37.4,81,30.32,10.0,SSE,6.9,-,N/A,,Clear,160,2013-04-27 07:35:00
3:55 AM,42.3,37.4,83,30.32,10.0,SSE,5.8,-,N/A,,Clear,160,2013-04-27 07:55:00
4:15 AM,40.5,36.3,85,30.32,10.0,SSE,3.5,-,N/A,,Clear,150,2013-04-27 08:15:00
4:35 AM,39.9,36.7,88,30.32,10.0,SSE,3.5,-,N/A,,Clear,150,2013-04-27 08:35:00
4:55 AM,39.4,36.5,89,30.32,10.0,SE,3.5,-,N/A,,Clear,130,2013-04-27 08:55:00
5:15 AM,39.0,36.1,89,30.32,10.0,Calm,Calm,-,N/A,,Clear,0,2013-04-27 09:15:00
5:35 AM,40.5,36.7,86,30.32,10.0,Calm,Calm,-,N/A,,Clear,0,2013-04-27 09:35:00
5:55 AM,40.5,36.9,87,30.31,10.0,Calm,Calm,-,N/A,,Clear,0,2013-04-27 09:55:00
6:15 AM,41.0,37.0,86,30.31,10.0,Calm,Calm,-,N/A,,Clear,0,2013-04-27 10:15:00
6:35 AM,40.3,36.5,86,30.31,10.0,Calm,Calm,-,N/A,,Clear,0,2013-04-27 10:35:00
6:55 AM,41.0,36.9,85,30.31,10.0,Calm,Calm,-,N/A,,Clear,0,2013-04-27 10:55:00
7:15 AM,40.3,36.5,86,30.31,7.0,Calm,Calm,-,N/A,,Clear,0,2013-04-27 11:15:00
7:34 AM,41.4,37.8,87,30.32,7.0,Calm,Calm,-,N/A,,Clear,0,2013-04-27 11:34:00
7:55 AM,44.2,40.3,86,30.32,10.0,Calm,Calm,-,N/A,,Clear,0,2013-04-27 11:55:00
8:15 AM,48.4,39.0,70,30.32,10.0,SSW,3.5,-,N/A,,Clear,200,2013-04-27 12:15:00
8:34 AM,50.4,38.3,63,30.33,10.0,SSW,5.8,-,N/A,,Clear,210,2013-04-27 12:34:00
8:55 AM,52.0,39.2,62,30.33,10.0,SSW,4.6,-,N/A,,Clear,200,2013-04-27 12:55:00
9:15 AM,54.7,38.7,55,30.33,10.0,South,6.9,-,N/A,,Clear,190,2013-04-27 13:15:00
9:34 AM,56.3,37.9,50,30.32,10.0,South,8.1,-,N/A,,Clear,190,2013-04-27 13:34:00
9:55 AM,57.7,37.6,47,30.31,10.0,SSW,6.9,-,N/A,,Clear,200,2013-04-27 13:55:00
10:15 AM,59.0,38.5,47,30.31,10.0,SSW,8.1,-,N/A,,Clear,210,2013-04-27 14:15:00
10:35 AM,60.1,38.5,45,30.30,10.0,South,8.1,-,N/A,,Clear,180,2013-04-27 14:35:00
10:55 AM,60.8,38.5,44,30.29,10.0,SE,5.8,-,N/A,,Clear,140,2013-04-27 14:55:00
11:15 AM,61.5,39.9,45,30.29,10.0,South,8.1,-,N/A,,Clear,170,2013-04-27 15:15:00
11:35 AM,62.1,38.7,42,30.29,10.0,South,9.2,-,N/A,,Clear,180,2013-04-27 15:35:00
11:55 AM,62.8,38.3,40,30.28,10.0,SSE,8.1,-,N/A,,Clear,150,2013-04-27 15:55:00
12:15 PM,63.0,37.2,38,30.28,10.0,South,8.1,-,N/A,,Clear,170,2013-04-27 16:15:00
12:35 PM,64.0,37.6,38,30.27,10.0,SE,11.5,-,N/A,,Clear,140,2013-04-27 16:35:00
12:55 PM,64.6,37.2,36,30.26,10.0,SSE,11.5,-,N/A,,Clear,160,2013-04-27 16:55:00
1:15 PM,64.8,36.0,34,30.25,10.0,SE,11.5,-,N/A,,Clear,130,2013-04-27 17:15:00
1:35 PM,65.5,35.6,33,30.25,10.0,SE,9.2,-,N/A,,Clear,130,2013-04-27 17:35:00
1:55 PM,66.4,35.2,32,30.24,10.0,SSE,10.4,16.1,N/A,,Clear,150,2013-04-27 17:55:00
2:14 PM,66.6,35.6,32,30.24,10.0,South,9.2,16.1,N/A,,Clear,170,2013-04-27 18:14:00
2:35 PM,67.1,34.7,30,30.23,10.0,South,8.1,-,N/A,,Clear,170,2013-04-27 18:35:00
2:55 PM,67.6,36.1,31,30.23,10.0,South,5.8,-,N/A,,Clear,180,2013-04-27 18:55:00
3:14 PM,67.8,35.6,30,30.22,10.0,SE,10.4,-,N/A,,Clear,140,2013-04-27 19:14:00
3:35 PM,67.8,33.8,28,30.21,10.0,SSE,9.2,-,N/A,,Clear,160,2013-04-27 19:35:00
4:15 PM,68.9,34.2,28,30.20,10.0,SE,11.5,-,N/A,,Clear,140,2013-04-27 20:15:00
4:35 PM,69.3,34.3,28,30.19,10.0,South,5.8,-,N/A,,Clear,170,2013-04-27 20:35:00
4:55 PM,68.0,33.1,27,30.18,10.0,SSE,10.4,-,N/A,,Clear,160,2013-04-27 20:55:00
5:15 PM,68.0,33.6,28,30.17,10.0,South,6.9,-,N/A,,Clear,180,2013-04-27 21:15:00
5:35 PM,68.0,32.7,27,30.17,10.0,SE,4.6,-,N/A,,Clear,140,2013-04-27 21:35:00
5:55 PM,68.5,35.2,29,30.16,10.0,SSE,9.2,-,N/A,,Clear,150,2013-04-27 21:55:00
6:15 PM,68.0,34.3,29,30.15,10.0,South,8.1,-,N/A,,Clear,170,2013-04-27 22:15:00
6:35 PM,68.0,36.3,31,30.15,10.0,SE,5.8,-,N/A,,Clear,130,2013-04-27 22:35:00
6:54 PM,67.5,36.1,32,30.15,10.0,South,9.2,-,N/A,,Clear,170,2013-04-27 22:54:00
7:15 PM,66.6,36.3,33,30.14,10.0,SE,10.4,-,N/A,,Clear,130,2013-04-27 23:15:00
7:35 PM,65.1,36.7,35,30.14,10.0,SE,10.4,-,N/A,,Clear,130,2013-04-27 23:35:00
7:54 PM,63.1,36.5,37,30.14,10.0,SE,8.1,-,N/A,,Clear,140,2013-04-27 23:54:00
8:15 PM,61.5,36.5,39,30.13,10.0,SE,6.9,-,N/A,,Clear,140,2013-04-28 00:15:00
8:35 PM,59.2,36.9,43,30.14,10.0,SE,8.1,-,N/A,,Clear,130,2013-04-28 00:35:00
8:54 PM,57.4,37.0,47,30.13,10.0,SE,6.9,-,N/A,,Clear,130,2013-04-28 00:54:00
9:15 PM,57.4,36.5,46,30.13,10.0,SE,6.9,-,N/A,,Clear,130,2013-04-28 01:15:00
9:35 PM,56.5,36.0,46,30.13,10.0,SE,6.9,-,N/A,,Clear,130,2013-04-28 01:35:00
9:55 PM,55.2,36.3,49,30.13,10.0,SE,6.9,-,N/A,,Clear,130,2013-04-28 01:55:00
10:15 PM,55.4,36.1,48,30.13,10.0,SE,5.8,-,N/A,,Clear,130,2013-04-28 02:15:00
10:35 PM,54.5,36.3,50,30.13,10.0,SE,5.8,-,N/A,,Clear,130,2013-04-28 02:35:00
10:55 PM,53.4,36.1,52,30.12,10.0,SE,6.9,-,N/A,,Clear,130,2013-04-28 02:55:00
11:15 PM,52.3,36.5,55,30.11,10.0,ESE,6.9,-,N/A,,Clear,120,2013-04-28 03:15:00
11:35 PM,53.4,36.5,53,30.11,10.0,ESE,5.8,-,N/A,,Clear,120,2013-04-28 03:35:00
11:55 PM,51.4,36.5,57,30.10,10.0,ESE,6.9,-,N/A,,Clear,120,2013-04-28 03:55:00